Time,TemperatureF,DewpointF,PressureIn,WindDirection,WindDirectionDegrees,WindSpeedMPH,WindSpeedGustMPH,Humidity,HourlyPrecipIn,Conditions,Clouds,dailyrainin,SoftwareType,DateUTC
2013-07-09 00:00:00,67.5,66.0,29.93,WSW,243,0.0,1.0,95,0.00,,---,0.00,VWS V14.00,2013-07-09 04:00:00,
2013-07-09 00:01:00,67.5,66.0,29.93,WSW,243,0.0,0.0,95,0.00,,---,0.00,VWS V14.00,2013-07-09 04:01:00,
2013-07-09 00:02:00,67.5,66.0,29.93,WSW,243,0.0,1.0,95,0.00,,---,0.00,VWS V14.00,2013-07-09 04:02:00,
2013-07-09 00:07:00,67.5,66.0,29.93,WSW,243,0.0,1.0,95,0.00,,---,0.00,VWS V14.00,2013-07-09 04:07:00,
2013-07-09 00:12:00,67.5,66.3,29.93,WSW,242,0.0,1.0,96,0.00,,---,0.00,VWS V14.00,2013-07-09 04:12:00,
2013-07-09 00:15:00,67.5,66.3,29.93,WSW,238,0.0,1.0,96,0.00,,---,0.00,VWS V14.00,2013-07-09 04:15:00,
2013-07-09 00:17:00,67.5,66.3,29.93,WSW,238,0.0,0.0,96,0.00,,---,0.00,VWS V14.00,2013-07-09 04:17:00,
2013-07-09 00:22:00,67.6,66.4,29.93,WSW,238,0.0,0.0,96,0.00,,---,0.00,VWS V14.00,2013-07-09 04:22:00,
2013-07-09 00:27:00,67.5,66.3,29.93,WSW,238,0.0,0.0,96,0.00,,---,0.00,VWS V14.00,2013-07-09 04:27:00,
2013-07-09 00:30:00,67.6,66.4,29.93,WSW,238,0.0,1.0,96,0.00,,---,0.00,VWS V14.00,2013-07-09 04:30:00,
2013-07-09 00:32:00,67.5,66.3,29.93,WSW,238,1.0,1.0,96,0.01,,---,0.01,VWS V14.00,2013-07-09 04:32:00,
2013-07-09 00:37:00,67.6,66.4,29.93,WSW,238,1.0,1.0,96,0.01,,---,0.01,VWS V14.00,2013-07-09 04:37:00,
2013-07-09 00:42:00,67.6,66.4,29.93,South,180,2.0,2.0,96,0.01,,---,0.01,VWS V14.00,2013-07-09 04:42:00,
2013-07-09 00:45:00,67.6,66.4,29.93,SSE,150,0.0,5.0,96,0.01,,---,0.01,VWS V14.00,2013-07-09 04:45:00,
2013-07-09 00:47:00,67.6,66.4,29.93,SE,144,0.0,1.0,96,0.01,,---,0.01,VWS V14.00,2013-07-09 04:47:00,
2013-07-09 00:52:00,67.7,66.5,29.92,SSE,153,0.0,4.0,96,0.01,,---,0.01,VWS V14.00,2013-07-09 04:52:00,
2013-07-09 00:57:00,67.7,66.5,29.93,SSE,165,0.0,4.0,96,0.01,,---,0.01,VWS V14.00,2013-07-09 04:57:00,
2013-07-09 01:00:00,67.7,66.5,29.93,SSE,165,0.0,4.0,96,0.01,,---,0.01,VWS V14.00,2013-07-09 05:00:00,
2013-07-09 01:02:00,67.7,66.5,29.93,SSE,165,0.0,0.0,96,0.01,,---,0.01,VWS V14.00,2013-07-09 05:02:00,
2013-07-09 01:07:00,67.7,66.5,29.93,SSE,165,0.0,1.0,96,0.01,,---,0.01,VWS V14.00,2013-07-09 05:07:00,
2013-07-09 01:12:00,67.7,66.5,29.93,SSE,165,0.0,1.0,96,0.01,,---,0.01,VWS V14.00,2013-07-09 05:12:00,
2013-07-09 01:15:00,67.7,66.5,29.93,SSE,165,0.0,1.0,96,0.01,,---,0.01,VWS V14.00,2013-07-09 05:15:00,
2013-07-09 01:17:00,67.6,66.4,29.92,SSE,165,0.0,0.0,96,0.01,,---,0.01,VWS V14.00,2013-07-09 05:17:00,
2013-07-09 01:22:00,67.6,66.4,29.93,SSE,165,0.0,0.0,96,0.01,,---,0.01,VWS V14.00,2013-07-09 05:22:00,
2013-07-09 01:27:00,67.6,66.4,29.93,SSE,165,0.0,1.0,96,0.01,,---,0.01,VWS V14.00,2013-07-09 05:27:00,
2013-07-09 01:30:00,67.6,66.4,29.93,SSE,165,0.0,1.0,96,0.01,,---,0.01,VWS V14.00,2013-07-09 05:30:00,
2013-07-09 01:32:00,67.7,66.5,29.93,SSE,165,0.0,1.0,96,0.01,,---,0.01,VWS V14.00,2013-07-09 05:32:00,
2013-07-09 01:37:00,67.7,66.5,29.93,SSE,165,0.0,1.0,96,0.01,,---,0.01,VWS V14.00,2013-07-09 05:37:00,
2013-07-09 01:42:00,67.8,66.9,29.93,SSE,165,0.0,1.0,97,0.01,,---,0.01,VWS V14.00,2013-07-09 05:42:00,
2013-07-09 01:45:00,67.8,66.9,29.93,SSE,165,0.0,1.0,97,0.01,,---,0.01,VWS V14.00,2013-07-09 05:45:00,
2013-07-09 01:47:00,67.8,66.9,29.93,SW,220,3.0,7.0,97,0.00,,---,0.01,VWS V14.00,2013-07-09 05:47:00,
2013-07-09 01:52:00,67.9,67.0,29.93,SSW,196,0.0,7.0,97,0.00,,---,0.01,VWS V14.00,2013-07-09 05:52:00,
2013-07-09 01:57:00,67.9,67.0,29.93,SSW,196,0.0,7.0,97,0.01,,---,0.02,VWS V14.00,2013-07-09 05:57:00,
2013-07-09 02:00:00,67.9,67.0,29.93,SW,231,3.0,7.0,97,0.01,,---,0.02,VWS V14.00,2013-07-09 06:00:00,
2013-07-09 02:02:00,67.9,67.0,29.93,South,190,0.0,3.0,97,0.01,,---,0.02,VWS V14.00,2013-07-09 06:02:00,
2013-07-09 02:07:00,67.9,67.0,29.93,South,180,0.0,3.0,97,0.01,,---,0.02,VWS V14.00,2013-07-09 06:07:00,
2013-07-09 02:12:00,67.9,67.0,29.93,South,180,0.0,3.0,97,0.01,,---,0.02,VWS V14.00,2013-07-09 06:12:00,
2013-07-09 02:15:00,67.9,67.0,29.93,South,180,0.0,3.0,97,0.01,,---,0.02,VWS V14.00,2013-07-09 06:15:00,
2013-07-09 02:17:00,67.9,67.0,29.93,South,180,0.0,1.0,97,0.02,,---,0.03,VWS V14.00,2013-07-09 06:17:00,
2013-07-09 02:22:00,67.9,67.0,29.93,South,180,0.0,1.0,97,0.03,,---,0.04,VWS V14.00,2013-07-09 06:22:00,
2013-07-09 02:27:00,67.9,67.0,29.92,South,180,2.0,3.0,97,0.03,,---,0.04,VWS V14.00,2013-07-09 06:27:00,
2013-07-09 02:30:00,67.9,67.0,29.92,South,181,3.0,4.0,97,0.03,,---,0.04,VWS V14.00,2013-07-09 06:30:00,
2013-07-09 02:32:00,67.8,66.9,29.92,South,181,0.0,3.0,97,0.03,,---,0.04,VWS V14.00,2013-07-09 06:32:00,
2013-07-09 02:37:00,67.8,66.9,29.92,South,181,1.0,3.0,97,0.03,,---,0.04,VWS V14.00,2013-07-09 06:37:00,
2013-07-09 02:42:00,67.8,66.9,29.92,South,181,0.0,3.0,97,0.04,,---,0.05,VWS V14.00,2013-07-09 06:42:00,
2013-07-09 02:45:00,67.8,66.9,29.92,South,181,0.0,3.0,97,0.04,,---,0.05,VWS V14.00,2013-07-09 06:45:00,
2013-07-09 02:47:00,67.8,66.9,29.92,South,181,0.0,0.0,97,0.04,,---,0.05,VWS V14.00,2013-07-09 06:47:00,
2013-07-09 02:52:00,67.8,66.9,29.91,South,181,0.0,1.0,97,0.04,,---,0.05,VWS V14.00,2013-07-09 06:52:00,
2013-07-09 02:57:00,67.8,66.9,29.92,South,181,0.0,1.0,97,0.04,,---,0.05,VWS V14.00,2013-07-09 06:57:00,
2013-07-09 03:00:00,67.8,66.9,29.91,South,181,0.0,1.0,97,0.04,,---,0.05,VWS V14.00,2013-07-09 07:00:00,
2013-07-09 03:02:00,67.8,66.9,29.91,South,181,0.0,1.0,97,0.03,,---,0.05,VWS V14.00,2013-07-09 07:02:00,
2013-07-09 03:07:00,67.7,66.8,29.91,South,182,0.0,4.0,97,0.03,,---,0.05,VWS V14.00,2013-07-09 07:07:00,
2013-07-09 03:12:00,67.7,66.8,29.91,SSE,168,0.0,4.0,97,0.03,,---,0.05,VWS V14.00,2013-07-09 07:12:00,
2013-07-09 03:15:00,67.7,66.8,29.91,South,170,0.0,5.0,97,0.03,,---,0.05,VWS V14.00,2013-07-09 07:15:00,
2013-07-09 03:17:00,67.7,66.8,29.91,South,183,3.0,4.0,97,0.03,,---,0.05,VWS V14.00,2013-07-09 07:17:00,
2013-07-09 03:22:00,67.7,66.8,29.91,SSE,157,0.0,7.0,97,0.03,,---,0.05,VWS V14.00,2013-07-09 07:22:00,
2013-07-09 03:27:00,67.7,66.8,29.91,South,183,4.0,7.0,97,0.03,,---,0.05,VWS V14.00,2013-07-09 07:27:00,
2013-07-09 03:30:00,67.7,66.8,29.90,South,181,1.0,7.0,97,0.03,,---,0.05,VWS V14.00,2013-07-09 07:30:00,
2013-07-09 03:32:00,67.7,66.8,29.90,SSE,167,0.0,2.0,97,0.01,,---,0.05,VWS V14.00,2013-07-09 07:32:00,
2013-07-09 03:37:00,67.6,66.7,29.91,SSW,200,2.0,5.0,97,0.01,,---,0.05,VWS V14.00,2013-07-09 07:37:00,
2013-07-09 03:42:00,67.6,66.7,29.91,South,187,2.0,5.0,97,0.01,,---,0.05,VWS V14.00,2013-07-09 07:42:00,
2013-07-09 03:45:00,67.6,66.7,29.91,South,174,1.0,6.0,97,0.01,,---,0.05,VWS V14.00,2013-07-09 07:45:00,
2013-07-09 03:47:00,67.6,66.7,29.91,SSW,196,1.0,5.0,97,0.00,,---,0.05,VWS V14.00,2013-07-09 07:47:00,
2013-07-09 03:52:00,67.5,66.6,29.90,South,190,0.0,6.0,97,0.00,,---,0.05,VWS V14.00,2013-07-09 07:52:00,
2013-07-09 03:57:00,67.5,66.6,29.91,South,186,0.0,6.0,97,0.00,,---,0.05,VWS V14.00,2013-07-09 07:57:00,
2013-07-09 04:00:00,67.5,66.6,29.90,South,186,0.0,6.0,97,0.00,,---,0.05,VWS V14.00,2013-07-09 08:00:00,
2013-07-09 04:02:00,67.5,66.6,29.91,South,180,4.0,6.0,97,0.00,,---,0.05,VWS V14.00,2013-07-09 08:02:00,
2013-07-09 04:07:00,67.5,66.6,29.90,South,171,0.0,6.0,97,0.00,,---,0.05,VWS V14.00,2013-07-09 08:07:00,
2013-07-09 04:12:00,67.5,66.6,29.90,South,175,0.0,6.0,97,0.00,,---,0.05,VWS V14.00,2013-07-09 08:12:00,
2013-07-09 04:15:00,67.5,66.6,29.90,SSE,163,0.0,6.0,97,0.00,,---,0.05,VWS V14.00,2013-07-09 08:15:00,
2013-07-09 04:18:00,67.5,66.6,29.90,South,173,4.0,6.0,97,0.00,,---,0.05,VWS V14.00,2013-07-09 08:18:00,
2013-07-09 04:23:00,67.4,66.5,29.90,South,180,0.0,6.0,97,0.00,,---,0.05,VWS V14.00,2013-07-09 08:23:00,
2013-07-09 04:28:00,67.4,66.5,29.90,SSW,197,0.0,6.0,97,0.00,,---,0.05,VWS V14.00,2013-07-09 08:28:00,
2013-07-09 04:30:00,67.4,66.5,29.90,SSW,207,4.0,6.0,97,0.00,,---,0.05,VWS V14.00,2013-07-09 08:30:00,
2013-07-09 04:33:00,67.4,66.5,29.90,South,177,0.0,4.0,97,0.00,,---,0.05,VWS V14.00,2013-07-09 08:33:00,
2013-07-09 04:38:00,67.4,66.5,29.90,SSW,196,0.0,5.0,97,0.00,,---,0.05,VWS V14.00,2013-07-09 08:38:00,
2013-07-09 04:43:00,67.3,66.4,29.90,South,184,1.0,5.0,97,0.00,,---,0.05,VWS V14.00,2013-07-09 08:43:00,
2013-07-09 04:45:00,67.3,66.4,29.90,South,186,1.0,5.0,97,0.00,,---,0.05,VWS V14.00,2013-07-09 08:45:00,
2013-07-09 04:48:00,67.3,66.4,29.90,South,173,0.0,4.0,97,0.00,,---,0.05,VWS V14.00,2013-07-09 08:48:00,
2013-07-09 04:53:00,67.4,66.5,29.89,South,189,2.0,4.0,97,0.00,,---,0.05,VWS V14.00,2013-07-09 08:53:00,
2013-07-09 04:58:00,67.4,66.5,29.89,South,181,2.0,6.0,97,0.00,,---,0.05,VWS V14.00,2013-07-09 08:58:00,
2013-07-09 05:00:00,67.4,66.5,29.89,South,169,0.0,6.0,97,0.00,,---,0.05,VWS V14.00,2013-07-09 09:00:00,
2013-07-09 05:03:00,67.4,66.5,29.89,SSW,194,0.0,5.0,97,0.00,,---,0.05,VWS V14.00,2013-07-09 09:03:00,
2013-07-09 05:08:00,67.4,66.5,29.90,SSW,200,0.0,6.0,97,0.00,,---,0.05,VWS V14.00,2013-07-09 09:08:00,
2013-07-09 05:13:00,67.4,66.5,29.90,SSE,167,4.0,6.0,97,0.00,,---,0.05,VWS V14.00,2013-07-09 09:13:00,
2013-07-09 05:15:00,67.4,66.5,29.90,South,178,0.0,6.0,97,0.00,,---,0.05,VWS V14.00,2013-07-09 09:15:00,
2013-07-09 05:18:00,67.4,66.5,29.90,South,179,0.0,0.0,97,0.00,,---,0.05,VWS V14.00,2013-07-09 09:18:00,
2013-07-09 05:23:00,67.4,66.2,29.89,SSE,167,0.0,6.0,96,0.00,,---,0.05,VWS V14.00,2013-07-09 09:23:00,
2013-07-09 05:28:00,67.4,66.2,29.89,SSE,168,0.0,6.0,96,0.00,,---,0.05,VWS V14.00,2013-07-09 09:28:00,
2013-07-09 05:30:00,67.4,66.2,29.89,South,183,1.0,6.0,96,0.00,,---,0.05,VWS V14.00,2013-07-09 09:30:00,
2013-07-09 05:33:00,67.4,66.2,29.89,South,186,0.0,2.0,96,0.00,,---,0.05,VWS V14.00,2013-07-09 09:33:00,
2013-07-09 05:38:00,67.4,66.2,29.90,South,186,0.0,5.0,96,0.00,,---,0.05,VWS V14.00,2013-07-09 09:38:00,
2013-07-09 05:43:00,67.4,66.2,29.89,SSE,167,0.0,5.0,96,0.00,,---,0.05,VWS V14.00,2013-07-09 09:43:00,
2013-07-09 05:45:00,67.4,66.2,29.89,South,177,0.0,5.0,96,0.00,,---,0.05,VWS V14.00,2013-07-09 09:45:00,
2013-07-09 05:48:00,67.3,66.1,29.89,South,189,0.0,7.0,96,0.00,,---,0.05,VWS V14.00,2013-07-09 09:48:00,
2013-07-09 05:53:00,67.3,66.1,29.89,South,182,2.0,8.0,96,0.00,,---,0.05,VWS V14.00,2013-07-09 09:53:00,
2013-07-09 05:58:00,67.3,66.4,29.89,South,182,3.0,8.0,97,0.00,,---,0.05,VWS V14.00,2013-07-09 09:58:00,
2013-07-09 06:00:00,67.3,66.4,29.89,South,183,0.0,8.0,97,0.00,,---,0.05,VWS V14.00,2013-07-09 10:00:00,
2013-07-09 06:03:00,67.3,66.1,29.89,South,190,4.0,5.0,96,0.00,,---,0.05,VWS V14.00,2013-07-09 10:03:00,
2013-07-09 06:08:00,67.2,66.0,29.89,SSE,161,4.0,6.0,96,0.00,,---,0.05,VWS V14.00,2013-07-09 10:08:00,
2013-07-09 06:13:00,67.2,66.0,29.89,SSW,213,0.0,6.0,96,0.00,,---,0.05,VWS V14.00,2013-07-09 10:13:00,
2013-07-09 06:15:00,67.2,66.0,29.89,South,187,0.0,6.0,96,0.00,,---,0.05,VWS V14.00,2013-07-09 10:15:00,
2013-07-09 06:18:00,67.2,66.0,29.89,South,188,3.0,7.0,96,0.00,,---,0.05,VWS V14.00,2013-07-09 10:18:00,
2013-07-09 06:23:00,67.2,66.0,29.89,South,169,6.0,8.0,96,0.00,,---,0.05,VWS V14.00,2013-07-09 10:23:00,
2013-07-09 06:28:00,67.2,66.0,29.89,South,173,0.0,8.0,96,0.00,,---,0.05,VWS V14.00,2013-07-09 10:28:00,
2013-07-09 06:30:00,67.3,66.1,29.89,South,178,8.0,8.0,96,0.00,,---,0.05,VWS V14.00,2013-07-09 10:30:00,
2013-07-09 06:33:00,67.2,66.0,29.89,South,184,0.0,8.0,96,0.00,,---,0.05,VWS V14.00,2013-07-09 10:33:00,
2013-07-09 06:38:00,67.3,66.1,29.89,SSW,194,0.0,8.0,96,0.00,,---,0.05,VWS V14.00,2013-07-09 10:38:00,
2013-07-09 06:43:00,67.4,66.2,29.89,SSW,194,0.0,8.0,96,0.00,,---,0.05,VWS V14.00,2013-07-09 10:43:00,
2013-07-09 06:45:00,67.4,66.2,29.89,South,191,4.0,8.0,96,0.00,,---,0.05,VWS V14.00,2013-07-09 10:45:00,
2013-07-09 06:48:00,67.4,66.2,29.89,South,189,1.0,7.0,96,0.00,,---,0.05,VWS V14.00,2013-07-09 10:48:00,
2013-07-09 06:53:00,67.4,66.2,29.89,South,187,0.0,7.0,96,0.00,,---,0.05,VWS V14.00,2013-07-09 10:53:00,
2013-07-09 06:58:00,67.5,66.3,29.89,SW,221,0.0,7.0,96,0.00,,---,0.05,VWS V14.00,2013-07-09 10:58:00,
2013-07-09 07:00:00,67.5,66.3,29.89,SW,221,0.0,7.0,96,0.00,,---,0.05,VWS V14.00,2013-07-09 11:00:00,
2013-07-09 07:03:00,67.5,66.3,29.89,SSW,196,0.0,1.0,96,0.00,,---,0.05,VWS V14.00,2013-07-09 11:03:00,
2013-07-09 07:08:00,67.5,66.3,29.89,SSE,148,0.0,6.0,96,0.00,,---,0.05,VWS V14.00,2013-07-09 11:08:00,
2013-07-09 07:13:00,67.5,66.3,29.89,SSW,211,0.0,6.0,96,0.00,,---,0.05,VWS V14.00,2013-07-09 11:13:00,
2013-07-09 07:15:00,67.5,66.3,29.89,South,187,1.0,6.0,96,0.00,,---,0.05,VWS V14.00,2013-07-09 11:15:00,
2013-07-09 07:18:00,67.6,66.4,29.89,South,187,3.0,4.0,96,0.00,,---,0.05,VWS V14.00,2013-07-09 11:18:00,
2013-07-09 07:23:00,67.6,66.4,29.89,South,190,0.0,8.0,96,0.00,,---,0.05,VWS V14.00,2013-07-09 11:23:00,
2013-07-09 07:28:00,67.6,66.4,29.90,South,171,0.0,8.0,96,0.00,,---,0.05,VWS V14.00,2013-07-09 11:28:00,
2013-07-09 07:30:00,67.6,66.4,29.90,South,170,0.0,8.0,96,0.00,,---,0.05,VWS V14.00,2013-07-09 11:30:00,
2013-07-09 07:33:00,67.7,66.5,29.89,SSW,192,2.0,5.0,96,0.00,,---,0.05,VWS V14.00,2013-07-09 11:33:00,
2013-07-09 07:38:00,67.7,66.5,29.89,South,184,2.0,5.0,96,0.00,,---,0.05,VWS V14.00,2013-07-09 11:38:00,
2013-07-09 07:43:00,67.8,66.6,29.89,South,184,2.0,8.0,96,0.00,,---,0.05,VWS V14.00,2013-07-09 11:43:00,
2013-07-09 07:45:00,67.8,66.6,29.89,South,174,0.0,8.0,96,0.00,,---,0.05,VWS V14.00,2013-07-09 11:45:00,
2013-07-09 07:48:00,67.8,66.6,29.89,South,188,0.0,3.0,96,0.00,,---,0.05,VWS V14.00,2013-07-09 11:48:00,
2013-07-09 07:53:00,67.9,66.7,29.89,South,171,0.0,8.0,96,0.00,,---,0.05,VWS V14.00,2013-07-09 11:53:00,
2013-07-09 07:58:00,67.9,66.7,29.89,South,182,0.0,8.0,96,0.00,,---,0.05,VWS V14.00,2013-07-09 11:58:00,
2013-07-09 08:00:00,68.0,66.8,29.89,South,182,0.0,8.0,96,0.00,,---,0.05,VWS V14.00,2013-07-09 12:00:00,
2013-07-09 08:03:00,68.0,66.8,29.89,SSW,202,0.0,1.0,96,0.00,,---,0.05,VWS V14.00,2013-07-09 12:03:00,
2013-07-09 08:08:00,68.1,66.9,29.89,South,188,0.0,6.0,96,0.00,,---,0.05,VWS V14.00,2013-07-09 12:08:00,
2013-07-09 08:13:00,68.2,67.0,29.89,South,190,0.0,6.0,96,0.00,,---,0.05,VWS V14.00,2013-07-09 12:13:00,
2013-07-09 08:15:00,68.2,67.0,29.89,South,180,1.0,6.0,96,0.00,,---,0.05,VWS V14.00,2013-07-09 12:15:00,
2013-07-09 08:18:00,68.3,67.1,29.89,WSW,241,0.0,1.0,96,0.00,,---,0.05,VWS V14.00,2013-07-09 12:18:00,
2013-07-09 08:23:00,68.3,67.1,29.89,SSW,207,0.0,1.0,96,0.00,,---,0.05,VWS V14.00,2013-07-09 12:23:00,
2013-07-09 08:28:00,68.4,67.2,29.89,South,178,0.0,1.0,96,0.00,,---,0.05,VWS V14.00,2013-07-09 12:28:00,
2013-07-09 08:30:00,68.4,67.2,29.89,South,178,0.0,1.0,96,0.00,,---,0.05,VWS V14.00,2013-07-09 12:30:00,
2013-07-09 08:33:00,68.4,67.2,29.89,SSE,155,0.0,1.0,96,0.00,,---,0.05,VWS V14.00,2013-07-09 12:33:00,
2013-07-09 08:38:00,68.4,67.2,29.89,SSE,157,0.0,1.0,96,0.00,,---,0.05,VWS V14.00,2013-07-09 12:38:00,
2013-07-09 08:43:00,68.5,67.3,29.89,SSW,196,0.0,4.0,96,0.00,,---,0.05,VWS V14.00,2013-07-09 12:43:00,
2013-07-09 08:45:00,68.5,67.3,29.89,SSW,202,0.0,4.0,96,0.00,,---,0.05,VWS V14.00,2013-07-09 12:45:00,
2013-07-09 08:48:00,68.5,67.3,29.89,South,177,0.0,1.0,96,0.00,,---,0.05,VWS V14.00,2013-07-09 12:48:00,
2013-07-09 08:53:00,68.6,67.4,29.89,SSW,194,0.0,6.0,96,0.00,,---,0.05,VWS V14.00,2013-07-09 12:53:00,
2013-07-09 08:58:00,68.6,67.4,29.89,SSW,195,0.0,6.0,96,0.00,,---,0.05,VWS V14.00,2013-07-09 12:58:00,
2013-07-09 09:00:00,68.6,67.4,29.89,SSW,196,0.0,6.0,96,0.00,,---,0.05,VWS V14.00,2013-07-09 13:00:00,
2013-07-09 09:03:00,68.7,67.5,29.89,SSW,196,0.0,1.0,96,0.00,,---,0.05,VWS V14.00,2013-07-09 13:03:00,
2013-07-09 09:08:00,68.8,67.6,29.89,SSW,199,0.0,1.0,96,0.00,,---,0.05,VWS V14.00,2013-07-09 13:08:00,
2013-07-09 09:13:00,68.8,67.6,29.89,SSW,203,0.0,5.0,96,0.00,,---,0.05,VWS V14.00,2013-07-09 13:13:00,
2013-07-09 09:15:00,68.8,67.6,29.89,SSW,202,0.0,5.0,96,0.00,,---,0.05,VWS V14.00,2013-07-09 13:15:00,
2013-07-09 09:18:00,68.9,67.7,29.89,SSW,202,0.0,1.0,96,0.00,,---,0.05,VWS V14.00,2013-07-09 13:18:00,
2013-07-09 09:23:00,68.9,67.7,29.88,SSW,202,0.0,4.0,96,0.00,,---,0.05,VWS V14.00,2013-07-09 13:23:00,
2013-07-09 09:28:00,69.0,68.1,29.88,SSW,202,0.0,4.0,97,0.00,,---,0.05,VWS V14.00,2013-07-09 13:28:00,
2013-07-09 09:30:00,69.1,68.2,29.88,SSW,202,0.0,4.0,97,0.00,,---,0.05,VWS V14.00,2013-07-09 13:30:00,
2013-07-09 09:33:00,69.2,68.3,29.88,SSW,202,0.0,0.0,97,0.00,,---,0.05,VWS V14.00,2013-07-09 13:33:00,
2013-07-09 09:38:00,69.2,68.3,29.88,SSE,150,0.0,1.0,97,0.00,,---,0.05,VWS V14.00,2013-07-09 13:38:00,
2013-07-09 09:43:00,69.3,68.1,29.88,SSE,164,4.0,4.0,96,0.00,,---,0.05,VWS V14.00,2013-07-09 13:43:00,
2013-07-09 09:45:00,69.4,68.2,29.88,SSW,202,0.0,6.0,96,0.00,,---,0.05,VWS V14.00,2013-07-09 13:45:00,
2013-07-09 09:48:00,69.4,68.2,29.88,SSW,207,0.0,1.0,96,0.00,,---,0.05,VWS V14.00,2013-07-09 13:48:00,
2013-07-09 09:53:00,69.6,68.4,29.88,South,187,0.0,4.0,96,0.00,,---,0.05,VWS V14.00,2013-07-09 13:53:00,
2013-07-09 09:58:00,69.7,68.5,29.88,South,184,0.0,5.0,96,0.00,,---,0.05,VWS V14.00,2013-07-09 13:58:00,
2013-07-09 10:00:00,69.8,68.6,29.88,South,184,0.0,5.0,96,0.00,,---,0.05,VWS V14.00,2013-07-09 14:00:00,
2013-07-09 10:03:00,69.9,68.7,29.88,SSW,211,0.0,3.0,96,0.00,,---,0.05,VWS V14.00,2013-07-09 14:03:00,
2013-07-09 10:08:00,70.1,68.9,29.87,SSW,194,3.0,7.0,96,0.00,,---,0.05,VWS V14.00,2013-07-09 14:08:00,
2013-07-09 10:13:00,70.2,69.0,29.88,SSW,202,2.0,7.0,96,0.00,,---,0.05,VWS V14.00,2013-07-09 14:13:00,
2013-07-09 10:15:00,70.2,69.0,29.88,SSE,149,0.0,7.0,96,0.00,,---,0.05,VWS V14.00,2013-07-09 14:15:00,
2013-07-09 10:18:00,70.2,69.0,29.88,SSW,194,0.0,1.0,96,0.00,,---,0.05,VWS V14.00,2013-07-09 14:18:00,
2013-07-09 10:23:00,70.2,69.0,29.88,SSW,196,3.0,4.0,96,0.00,,---,0.05,VWS V14.00,2013-07-09 14:23:00,
2013-07-09 10:28:00,70.2,69.0,29.88,South,174,0.0,5.0,96,0.00,,---,0.05,VWS V14.00,2013-07-09 14:28:00,
2013-07-09 10:30:00,70.2,69.0,29.88,SW,225,0.0,7.0,96,0.00,,---,0.05,VWS V14.00,2013-07-09 14:30:00,
2013-07-09 10:33:00,70.2,69.0,29.88,SSW,194,2.0,3.0,96,0.00,,---,0.05,VWS V14.00,2013-07-09 14:33:00,
2013-07-09 10:38:00,70.4,69.2,29.88,West,265,1.0,5.0,96,0.00,,---,0.05,VWS V14.00,2013-07-09 14:38:00,
2013-07-09 10:43:00,70.4,69.2,29.88,SSW,205,2.0,6.0,96,0.00,,---,0.05,VWS V14.00,2013-07-09 14:43:00,
2013-07-09 10:45:00,70.5,69.3,29.88,SW,220,2.0,6.0,96,0.00,,---,0.05,VWS V14.00,2013-07-09 14:45:00,
2013-07-09 10:48:00,70.5,69.0,29.88,SSW,205,0.0,4.0,95,0.00,,---,0.05,VWS V14.00,2013-07-09 14:48:00,
2013-07-09 10:53:00,70.5,69.0,29.88,SW,221,0.0,4.0,95,0.00,,---,0.05,VWS V14.00,2013-07-09 14:53:00,
2013-07-09 10:58:00,70.6,69.1,29.88,South,191,2.0,4.0,95,0.00,,---,0.05,VWS V14.00,2013-07-09 14:58:00,
2013-07-09 11:00:00,70.6,69.1,29.88,SW,236,0.0,7.0,95,0.00,,---,0.05,VWS V14.00,2013-07-09 15:00:00,
2013-07-09 11:03:00,70.6,69.1,29.88,South,188,0.0,1.0,95,0.00,,---,0.05,VWS V14.00,2013-07-09 15:03:00,
2013-07-09 11:08:00,70.7,69.2,29.88,SW,228,0.0,7.0,95,0.00,,---,0.05,VWS V14.00,2013-07-09 15:08:00,
2013-07-09 11:13:00,70.8,69.3,29.88,West,268,2.0,7.0,95,0.00,,---,0.05,VWS V14.00,2013-07-09 15:13:00,
2013-07-09 11:15:00,70.8,69.3,29.88,South,173,0.0,7.0,95,0.00,,---,0.05,VWS V14.00,2013-07-09 15:15:00,
2013-07-09 11:18:00,70.8,69.3,29.88,SSE,163,2.0,4.0,95,0.00,,---,0.05,VWS V14.00,2013-07-09 15:18:00,
2013-07-09 11:23:00,70.8,69.3,29.88,South,191,0.0,6.0,95,0.00,,---,0.05,VWS V14.00,2013-07-09 15:23:00,
2013-07-09 11:28:00,70.8,69.3,29.88,WSW,243,3.0,6.0,95,0.00,,---,0.05,VWS V14.00,2013-07-09 15:28:00,
2013-07-09 11:30:00,70.8,69.3,29.88,South,189,0.0,6.0,95,0.00,,---,0.05,VWS V14.00,2013-07-09 15:30:00,
2013-07-09 11:33:00,70.8,69.3,29.88,SSW,199,0.0,1.0,95,0.00,,---,0.05,VWS V14.00,2013-07-09 15:33:00,
2013-07-09 11:38:00,70.9,69.4,29.88,SSW,198,0.0,1.0,95,0.00,,---,0.05,VWS V14.00,2013-07-09 15:38:00,
2013-07-09 11:43:00,70.9,69.4,29.88,SSW,205,0.0,5.0,95,0.00,,---,0.05,VWS V14.00,2013-07-09 15:43:00,
2013-07-09 11:45:00,70.9,69.4,29.88,SSW,194,5.0,5.0,95,0.00,,---,0.05,VWS V14.00,2013-07-09 15:45:00,
2013-07-09 11:48:00,70.9,69.4,29.88,WSW,238,0.0,5.0,95,0.00,,---,0.05,VWS V14.00,2013-07-09 15:48:00,
2013-07-09 11:53:00,71.0,69.5,29.88,SSW,193,0.0,5.0,95,0.00,,---,0.05,VWS V14.00,2013-07-09 15:53:00,
2013-07-09 11:58:00,71.2,69.7,29.88,South,191,0.0,5.0,95,0.00,,---,0.05,VWS V14.00,2013-07-09 15:58:00,
2013-07-09 12:00:00,71.2,69.7,29.88,SSW,200,0.0,5.0,95,0.00,,---,0.05,VWS V14.00,2013-07-09 16:00:00,
2013-07-09 12:03:00,71.2,69.7,29.88,SSW,205,0.0,1.0,95,0.00,,---,0.05,VWS V14.00,2013-07-09 16:03:00,
2013-07-09 12:08:00,71.3,69.8,29.88,South,188,0.0,5.0,95,0.00,,---,0.05,VWS V14.00,2013-07-09 16:08:00,
2013-07-09 12:13:00,71.4,69.9,29.88,South,189,0.0,5.0,95,0.00,,---,0.05,VWS V14.00,2013-07-09 16:13:00,
2013-07-09 12:15:00,71.4,69.9,29.88,South,189,0.0,5.0,95,0.00,,---,0.05,VWS V14.00,2013-07-09 16:15:00,
2013-07-09 12:18:00,71.5,70.0,29.88,WSW,249,0.0,4.0,95,0.00,,---,0.05,VWS V14.00,2013-07-09 16:18:00,
2013-07-09 12:23:00,71.7,70.2,29.88,SSW,194,0.0,4.0,95,0.00,,---,0.05,VWS V14.00,2013-07-09 16:23:00,
2013-07-09 12:28:00,71.9,70.4,29.88,SW,232,0.0,5.0,95,0.00,,---,0.05,VWS V14.00,2013-07-09 16:28:00,
2013-07-09 12:30:00,71.9,70.4,29.88,SW,232,0.0,5.0,95,0.00,,---,0.05,VWS V14.00,2013-07-09 16:30:00,
2013-07-09 12:33:00,72.3,70.8,29.88,South,188,0.0,3.0,95,0.00,,---,0.05,VWS V14.00,2013-07-09 16:33:00,
2013-07-09 12:38:00,72.6,70.8,29.88,South,190,0.0,6.0,94,0.00,,---,0.05,VWS V14.00,2013-07-09 16:38:00,
2013-07-09 12:43:00,72.7,70.9,29.88,SW,218,0.0,8.0,94,0.00,,---,0.05,VWS V14.00,2013-07-09 16:43:00,
2013-07-09 12:45:00,72.7,70.9,29.88,South,189,0.0,8.0,94,0.00,,---,0.05,VWS V14.00,2013-07-09 16:45:00,
2013-07-09 12:48:00,72.8,71.0,29.88,South,189,0.0,1.0,94,0.00,,---,0.05,VWS V14.00,2013-07-09 16:48:00,
2013-07-09 12:53:00,72.9,71.1,29.88,SW,220,0.0,3.0,94,0.00,,---,0.05,VWS V14.00,2013-07-09 16:53:00,
2013-07-09 12:58:00,73.1,71.3,29.88,SSW,198,0.0,3.0,94,0.00,,---,0.05,VWS V14.00,2013-07-09 16:58:00,
2013-07-09 13:00:00,73.2,71.4,29.88,WSW,253,0.0,3.0,94,0.00,,---,0.05,VWS V14.00,2013-07-09 17:00:00,
2013-07-09 13:03:00,73.3,71.5,29.88,SSW,205,0.0,3.0,94,0.00,,---,0.05,VWS V14.00,2013-07-09 17:03:00,
2013-07-09 13:08:00,73.6,71.8,29.88,SSW,212,0.0,5.0,94,0.00,,---,0.05,VWS V14.00,2013-07-09 17:08:00,
2013-07-09 13:13:00,73.8,71.7,29.87,SSW,200,0.0,5.0,93,0.00,,---,0.05,VWS V14.00,2013-07-09 17:13:00,
2013-07-09 13:15:00,73.9,71.8,29.87,SW,218,0.0,5.0,93,0.00,,---,0.05,VWS V14.00,2013-07-09 17:15:00,
2013-07-09 13:18:00,74.0,71.8,29.87,SW,221,0.0,1.0,93,0.00,,---,0.05,VWS V14.00,2013-07-09 17:18:00,
2013-07-09 13:23:00,74.2,72.1,29.88,SW,216,0.0,3.0,93,0.00,,---,0.05,VWS V14.00,2013-07-09 17:23:00,
2013-07-09 13:28:00,74.6,72.4,29.88,WSW,254,0.0,4.0,93,0.00,,---,0.05,VWS V14.00,2013-07-09 17:28:00,
2013-07-09 13:30:00,74.6,72.1,29.88,SSW,192,0.0,7.0,92,0.00,,---,0.05,VWS V14.00,2013-07-09 17:30:00,
2013-07-09 13:33:00,74.8,72.3,29.88,South,178,0.0,9.0,92,0.00,,---,0.05,VWS V14.00,2013-07-09 17:33:00,
2013-07-09 13:38:00,75.3,72.8,29.87,WSW,254,6.0,9.0,92,0.00,,---,0.05,VWS V14.00,2013-07-09 17:38:00,
2013-07-09 13:45:00,76.1,73.3,29.87,WSW,248,2.0,9.0,91,0.00,,---,0.05,VWS V14.00,2013-07-09 17:45:00,
2013-07-09 14:00:00,77.8,74.0,29.86,South,180,1.0,9.0,88,0.00,,---,0.05,VWS V14.00,2013-07-09 18:00:00,
2013-07-09 14:15:00,78.6,73.7,29.86,SSW,202,2.0,9.0,85,0.00,,---,0.05,VWS V14.00,2013-07-09 18:15:00,
2013-07-09 14:30:00,79.0,73.8,29.85,South,180,1.0,8.0,84,0.00,,---,0.05,VWS V14.00,2013-07-09 18:30:00,
2013-07-09 14:45:00,80.0,74.0,29.85,SSW,202,1.0,6.0,82,0.00,,---,0.05,VWS V14.00,2013-07-09 18:45:00,
2013-07-09 15:00:00,80.2,74.2,29.85,WSW,248,2.0,10.0,82,0.00,,---,0.05,VWS V14.00,2013-07-09 19:00:00,
2013-07-09 15:15:00,78.6,73.7,29.86,SSW,202,2.0,9.0,85,0.00,,---,0.05,VWS V14.00,2013-07-09 19:15:00,
2013-07-09 15:22:00,80.4,74.4,29.84,SSW,200,0.0,2.0,82,0.00,,---,0.05,VWS V14.00,2013-07-09 19:22:00,
2013-07-09 15:27:00,81.0,75.0,29.84,South,180,1.0,4.0,82,0.00,,---,0.05,VWS V14.00,2013-07-09 19:27:00,
2013-07-09 15:30:00,79.0,73.8,29.85,South,180,1.0,8.0,84,0.00,,---,0.05,VWS V14.00,2013-07-09 19:30:00,
2013-07-09 15:32:00,80.9,74.5,29.84,South,186,0.0,1.0,81,0.00,,---,0.05,VWS V14.00,2013-07-09 19:32:00,
2013-07-09 15:37:00,80.9,74.5,29.84,WSW,252,4.0,8.0,81,0.00,,---,0.05,VWS V14.00,2013-07-09 19:37:00,
2013-07-09 15:42:00,80.9,74.5,29.83,SW,223,0.0,8.0,81,0.00,,---,0.05,VWS V14.00,2013-07-09 19:42:00,
2013-07-09 15:45:00,80.0,74.0,29.85,SSW,202,1.0,6.0,82,0.00,,---,0.05,VWS V14.00,2013-07-09 19:45:00,
2013-07-09 15:47:00,80.8,74.8,29.84,West,268,2.0,7.0,82,0.00,,---,0.05,VWS V14.00,2013-07-09 19:47:00,
2013-07-09 15:52:00,80.8,74.4,29.83,WSW,240,0.0,7.0,81,0.00,,---,0.05,VWS V14.00,2013-07-09 19:52:00,
2013-07-09 15:57:00,80.8,74.8,29.83,WSW,247,0.0,7.0,82,0.00,,---,0.05,VWS V14.00,2013-07-09 19:57:00,
2013-07-09 16:00:00,80.2,74.2,29.85,WSW,248,2.0,10.0,82,0.00,,---,0.05,VWS V14.00,2013-07-09 20:00:00,
2013-07-09 16:02:00,80.7,74.3,29.83,WSW,247,0.0,1.0,81,0.00,,---,0.05,VWS V14.00,2013-07-09 20:02:00,
2013-07-09 16:07:00,80.8,74.1,29.83,WSW,237,2.0,6.0,80,0.00,,---,0.05,VWS V14.00,2013-07-09 20:07:00,
2013-07-09 16:12:00,81.2,75.6,29.83,WSW,257,0.0,7.0,83,0.00,,---,0.05,VWS V14.00,2013-07-09 20:12:00,
2013-07-09 16:17:00,82.0,74.8,29.83,SW,236,0.0,10.0,79,0.00,,---,0.05,VWS V14.00,2013-07-09 20:17:00,
2013-07-09 16:22:00,82.6,75.4,29.82,SSW,202,0.0,10.0,79,0.00,,---,0.05,VWS V14.00,2013-07-09 20:22:00,
2013-07-09 16:27:00,83.2,75.6,29.82,West,279,0.0,10.0,78,0.00,,---,0.05,VWS V14.00,2013-07-09 20:27:00,
2013-07-09 16:30:00,81.0,74.6,29.84,SSW,205,0.0,7.0,81,0.00,,---,0.05,VWS V14.00,2013-07-09 20:30:00,
2013-07-09 16:32:00,83.7,76.5,29.82,SSW,205,4.0,4.0,79,0.00,,---,0.05,VWS V14.00,2013-07-09 20:32:00,
2013-07-09 16:37:00,83.8,75.4,29.82,NW,311,0.0,8.0,76,0.00,,---,0.05,VWS V14.00,2013-07-09 20:37:00,
2013-07-09 16:42:00,83.9,75.1,29.81,WNW,294,4.0,8.0,75,0.00,,---,0.05,VWS V14.00,2013-07-09 20:42:00,
2013-07-09 16:45:00,80.9,74.5,29.84,WSW,245,0.0,8.0,81,0.00,,---,0.05,VWS V14.00,2013-07-09 20:45:00,
2013-07-09 16:47:00,84.1,75.3,29.81,WSW,257,0.0,5.0,75,0.00,,---,0.05,VWS V14.00,2013-07-09 20:47:00,
2013-07-09 16:52:00,84.1,74.9,29.81,SW,221,5.0,5.0,74,0.00,,---,0.05,VWS V14.00,2013-07-09 20:52:00,
2013-07-09 16:57:00,83.2,74.1,29.81,WSW,252,0.0,6.0,74,0.00,,---,0.05,VWS V14.00,2013-07-09 20:57:00,
2013-07-09 17:00:00,80.7,74.3,29.83,WSW,247,0.0,7.0,81,0.00,,---,0.05,VWS V14.00,2013-07-09 21:00:00,
2013-07-09 17:02:00,83.2,75.2,29.81,SW,230,1.0,4.0,77,0.00,,---,0.05,VWS V14.00,2013-07-09 21:02:00,
2013-07-09 17:07:00,83.3,74.6,29.81,NNW,332,0.0,4.0,75,0.00,,---,0.05,VWS V14.00,2013-07-09 21:07:00,
2013-07-09 17:12:00,83.0,74.7,29.81,West,273,0.0,4.0,76,0.00,,---,0.05,VWS V14.00,2013-07-09 21:12:00,
2013-07-09 17:15:00,81.6,75.2,29.82,West,279,3.0,7.0,81,0.00,,---,0.05,VWS V14.00,2013-07-09 21:15:00,
2013-07-09 17:17:00,82.4,74.9,29.81,WNW,296,0.0,4.0,78,0.00,,---,0.05,VWS V14.00,2013-07-09 21:17:00,
2013-07-09 17:22:00,82.0,74.5,29.81,WNW,300,1.0,4.0,78,0.00,,---,0.05,VWS V14.00,2013-07-09 21:22:00,
2013-07-09 17:27:00,81.8,74.7,29.80,NW,311,0.0,5.0,79,0.00,,---,0.05,VWS V14.00,2013-07-09 21:27:00,
2013-07-09 17:30:00,83.4,75.8,29.82,West,281,0.0,10.0,78,0.00,,---,0.05,VWS V14.00,2013-07-09 21:30:00,
2013-07-09 17:33:00,82.1,74.6,29.80,NW,325,2.0,4.0,78,0.00,,---,0.05,VWS V14.00,2013-07-09 21:33:00,
2013-07-09 17:38:00,82.4,75.2,29.80,WNW,294,4.0,6.0,79,0.00,,---,0.05,VWS V14.00,2013-07-09 21:38:00,
2013-07-09 17:43:00,82.5,74.9,29.80,West,278,0.0,6.0,78,0.00,,---,0.05,VWS V14.00,2013-07-09 21:43:00,
2013-07-09 17:45:00,83.9,74.7,29.81,SSW,211,0.0,8.0,74,0.00,,---,0.05,VWS V14.00,2013-07-09 21:45:00,
2013-07-09 17:48:00,82.7,75.2,29.80,North,351,5.0,6.0,78,0.00,,---,0.05,VWS V14.00,2013-07-09 21:48:00,
2013-07-09 17:53:00,82.3,75.1,29.80,North,5,1.0,6.0,79,0.00,,---,0.05,VWS V14.00,2013-07-09 21:53:00,
2013-07-09 17:58:00,82.3,75.1,29.80,NNW,329,0.0,6.0,79,0.00,,---,0.05,VWS V14.00,2013-07-09 21:58:00,
2013-07-09 18:00:00,83.0,73.9,29.81,WSW,251,0.0,6.0,74,0.00,,---,0.05,VWS V14.00,2013-07-09 22:00:00,
2013-07-09 18:03:00,82.7,75.5,29.80,West,267,0.0,1.0,79,0.00,,---,0.05,VWS V14.00,2013-07-09 22:03:00,
2013-07-09 18:08:00,83.2,75.2,29.80,WSW,246,6.0,6.0,77,0.00,,---,0.05,VWS V14.00,2013-07-09 22:08:00,
2013-07-09 18:13:00,83.1,74.8,29.80,WSW,246,0.0,6.0,76,0.00,,---,0.05,VWS V14.00,2013-07-09 22:13:00,
2013-07-09 18:15:00,82.7,75.2,29.81,NW,315,2.0,4.0,78,0.00,,---,0.05,VWS V14.00,2013-07-09 22:15:00,
2013-07-09 18:18:00,82.8,74.9,29.80,West,261,0.0,1.0,77,0.00,,---,0.05,VWS V14.00,2013-07-09 22:18:00,
2013-07-09 18:23:00,83.0,75.1,29.80,West,260,0.0,1.0,77,0.00,,---,0.05,VWS V14.00,2013-07-09 22:23:00,
2013-07-09 18:28:00,83.3,75.7,29.80,NE,51,1.0,1.0,78,0.00,,---,0.05,VWS V14.00,2013-07-09 22:28:00,
2013-07-09 18:30:00,81.9,74.4,29.80,WNW,302,0.0,5.0,78,0.00,,---,0.05,VWS V14.00,2013-07-09 22:30:00,
2013-07-09 18:33:00,83.5,74.8,29.80,SW,233,1.0,3.0,75,0.00,,---,0.05,VWS V14.00,2013-07-09 22:33:00,
2013-07-09 18:38:00,83.1,74.8,29.81,SW,228,0.0,6.0,76,0.00,,---,0.05,VWS V14.00,2013-07-09 22:38:00,
2013-07-09 18:43:00,82.9,74.9,29.81,SW,232,1.0,6.0,77,0.00,,---,0.05,VWS V14.00,2013-07-09 22:43:00,
2013-07-09 18:45:00,82.6,75.1,29.80,NW,311,0.0,6.0,78,0.00,,---,0.05,VWS V14.00,2013-07-09 22:45:00,
2013-07-09 18:48:00,82.8,74.9,29.81,WSW,242,0.0,3.0,77,0.00,,---,0.05,VWS V14.00,2013-07-09 22:48:00,
2013-07-09 18:53:00,82.7,74.8,29.80,WSW,245,0.0,4.0,77,0.00,,---,0.05,VWS V14.00,2013-07-09 22:53:00,
2013-07-09 18:58:00,82.9,75.3,29.80,WSW,244,0.0,4.0,78,0.00,,---,0.05,VWS V14.00,2013-07-09 22:58:00,
2013-07-09 19:00:00,82.3,75.1,29.80,NNW,328,0.0,6.0,79,0.00,,---,0.05,VWS V14.00,2013-07-09 23:00:00,
2013-07-09 19:03:00,82.8,75.2,29.80,West,263,0.0,3.0,78,0.00,,---,0.05,VWS V14.00,2013-07-09 23:03:00,
2013-07-09 19:08:00,82.7,74.8,29.80,WSW,243,0.0,5.0,77,0.00,,---,0.05,VWS V14.00,2013-07-09 23:08:00,
2013-07-09 19:13:00,82.6,74.7,29.79,WSW,249,1.0,5.0,77,0.00,,---,0.05,VWS V14.00,2013-07-09 23:13:00,
2013-07-09 19:15:00,83.0,75.1,29.80,WSW,246,0.0,6.0,77,0.00,,---,0.05,VWS V14.00,2013-07-09 23:15:00,
2013-07-09 19:18:00,82.5,74.9,29.80,West,261,0.0,1.0,78,0.00,,---,0.05,VWS V14.00,2013-07-09 23:18:00,
2013-07-09 19:23:00,82.4,74.9,29.80,WSW,254,0.0,4.0,78,0.00,,---,0.05,VWS V14.00,2013-07-09 23:23:00,
2013-07-09 19:28:00,82.2,75.0,29.80,WSW,257,0.0,4.0,79,0.00,,---,0.05,VWS V14.00,2013-07-09 23:28:00,
2013-07-09 19:30:00,83.4,75.0,29.80,NE,51,0.0,1.0,76,0.00,,---,0.05,VWS V14.00,2013-07-09 23:30:00,
2013-07-09 19:33:00,81.9,75.1,29.80,West,265,0.0,1.0,80,0.00,,---,0.05,VWS V14.00,2013-07-09 23:33:00,
2013-07-09 19:38:00,81.8,75.0,29.80,NNW,346,0.0,1.0,80,0.00,,---,0.05,VWS V14.00,2013-07-09 23:38:00,
2013-07-09 19:43:00,81.9,75.1,29.80,WNW,286,0.0,1.0,80,0.00,,---,0.05,VWS V14.00,2013-07-09 23:43:00,
2013-07-09 19:45:00,82.9,74.9,29.80,SW,235,0.0,6.0,77,0.00,,---,0.05,VWS V14.00,2013-07-09 23:45:00,
2013-07-09 19:48:00,81.8,75.0,29.80,WNW,286,0.0,0.0,80,0.00,,---,0.05,VWS V14.00,2013-07-09 23:48:00,
2013-07-09 19:53:00,81.8,75.0,29.80,WNW,286,0.0,0.0,80,0.00,,---,0.05,VWS V14.00,2013-07-09 23:53:00,
2013-07-09 19:58:00,81.7,75.3,29.80,WNW,286,0.0,0.0,81,0.00,,---,0.05,VWS V14.00,2013-07-09 23:58:00,
2013-07-09 20:00:00,82.9,75.3,29.80,West,266,0.0,4.0,78,0.00,,---,0.05,VWS V14.00,2013-07-10 00:00:00,
2013-07-09 20:03:00,81.4,75.4,29.80,WNW,286,0.0,0.0,82,0.00,,---,0.05,VWS V14.00,2013-07-10 00:03:00,
2013-07-09 20:08:00,80.8,75.2,29.80,WNW,286,0.0,0.0,83,0.00,,---,0.05,VWS V14.00,2013-07-10 00:08:00,
2013-07-09 20:13:00,80.1,74.5,29.80,WNW,286,0.0,0.0,83,0.00,,---,0.05,VWS V14.00,2013-07-10 00:13:00,
2013-07-09 20:15:00,82.6,74.7,29.80,WSW,253,0.0,5.0,77,0.00,,---,0.05,VWS V14.00,2013-07-10 00:15:00,
2013-07-09 20:18:00,79.3,74.4,29.80,WNW,286,0.0,0.0,85,0.00,,---,0.05,VWS V14.00,2013-07-10 00:18:00,
2013-07-09 20:23:00,78.6,74.1,29.80,WNW,286,0.0,0.0,86,0.00,,---,0.05,VWS V14.00,2013-07-10 00:23:00,
2013-07-09 20:28:00,78.1,73.9,29.80,WNW,286,0.0,0.0,87,0.00,,---,0.05,VWS V14.00,2013-07-10 00:28:00,
2013-07-09 20:30:00,82.1,74.9,29.80,West,265,0.0,4.0,79,0.00,,---,0.05,VWS V14.00,2013-07-10 00:30:00,
2013-07-09 20:33:00,77.7,73.9,29.80,WNW,286,0.0,0.0,88,0.00,,---,0.05,VWS V14.00,2013-07-10 00:33:00,
2013-07-09 20:38:00,77.4,73.9,29.80,WNW,286,0.0,0.0,89,0.00,,---,0.05,VWS V14.00,2013-07-10 00:38:00,
2013-07-09 20:43:00,77.1,73.6,29.80,WNW,286,0.0,0.0,89,0.00,,---,0.05,VWS V14.00,2013-07-10 00:43:00,
2013-07-09 20:45:00,81.9,75.1,29.80,WNW,286,0.0,1.0,80,0.00,,---,0.05,VWS V14.00,2013-07-10 00:45:00,
2013-07-09 20:48:00,76.9,73.8,29.80,WNW,286,0.0,0.0,90,0.00,,---,0.05,VWS V14.00,2013-07-10 00:48:00,
2013-07-09 20:53:00,76.6,73.4,29.80,WNW,286,0.0,0.0,90,0.00,,---,0.05,VWS V14.00,2013-07-10 00:53:00,
2013-07-09 20:58:00,76.3,73.5,29.79,WNW,286,0.0,0.0,91,0.00,,---,0.05,VWS V14.00,2013-07-10 00:58:00,
2013-07-09 21:00:00,81.6,75.2,29.80,WNW,286,0.0,0.0,81,0.00,,---,0.05,VWS V14.00,2013-07-10 01:00:00,
2013-07-09 21:03:00,76.1,73.3,29.80,WNW,286,0.0,0.0,91,0.00,,---,0.05,VWS V14.00,2013-07-10 01:03:00,
2013-07-09 21:08:00,75.8,73.3,29.80,WNW,286,0.0,0.0,92,0.00,,---,0.05,VWS V14.00,2013-07-10 01:08:00,
2013-07-09 21:13:00,75.6,73.1,29.80,WNW,286,0.0,0.0,92,0.00,,---,0.05,VWS V14.00,2013-07-10 01:13:00,
2013-07-09 21:15:00,79.8,74.5,29.80,WNW,286,0.0,0.0,84,0.00,,---,0.05,VWS V14.00,2013-07-10 01:15:00,
2013-07-09 21:18:00,75.3,72.8,29.80,WNW,286,0.0,0.0,92,0.00,,---,0.05,VWS V14.00,2013-07-10 01:18:00,
2013-07-09 21:23:00,75.0,72.5,29.80,WNW,286,0.0,0.0,92,0.00,,---,0.05,VWS V14.00,2013-07-10 01:23:00,
2013-07-09 21:28:00,74.8,72.6,29.80,WNW,286,0.0,0.0,93,0.00,,---,0.05,VWS V14.00,2013-07-10 01:28:00,
2013-07-09 21:30:00,78.0,74.2,29.80,WNW,286,0.0,0.0,88,0.00,,---,0.05,VWS V14.00,2013-07-10 01:30:00,
2013-07-09 21:33:00,74.7,72.6,29.80,WNW,286,0.0,0.0,93,0.00,,---,0.05,VWS V14.00,2013-07-10 01:33:00,
2013-07-09 21:38:00,74.4,72.2,29.80,WNW,286,0.0,1.0,93,0.00,,---,0.05,VWS V14.00,2013-07-10 01:38:00,
2013-07-09 21:43:00,74.4,72.6,29.81,South,191,3.0,3.0,94,0.00,,---,0.05,VWS V14.00,2013-07-10 01:43:00,
2013-07-09 21:45:00,77.0,73.5,29.80,WNW,286,0.0,0.0,89,0.00,,---,0.05,VWS V14.00,2013-07-10 01:45:00,
2013-07-09 21:48:00,74.7,73.2,29.82,SW,224,0.0,1.0,95,0.00,,---,0.05,VWS V14.00,2013-07-10 01:48:00,
2013-07-09 21:53:00,74.8,73.0,29.82,SSW,211,0.0,7.0,94,0.00,,---,0.05,VWS V14.00,2013-07-10 01:53:00,
2013-07-09 21:58:00,74.7,71.9,29.82,WSW,244,0.0,7.0,91,0.00,,---,0.05,VWS V14.00,2013-07-10 01:58:00,
2013-07-09 22:00:00,76.2,73.4,29.80,WNW,286,0.0,0.0,91,0.00,,---,0.05,VWS V14.00,2013-07-10 02:00:00,
2013-07-09 22:03:00,74.8,71.3,29.82,WSW,255,3.0,5.0,89,0.00,,---,0.05,VWS V14.00,2013-07-10 02:03:00,
2013-07-09 22:08:00,74.8,70.7,29.82,WSW,253,1.0,9.0,87,0.00,,---,0.05,VWS V14.00,2013-07-10 02:08:00,
2013-07-09 22:13:00,74.8,70.7,29.81,SSW,207,0.0,9.0,87,0.00,,---,0.05,VWS V14.00,2013-07-10 02:13:00,
2013-07-09 22:15:00,75.5,73.0,29.80,WNW,286,0.0,0.0,92,0.00,,---,0.05,VWS V14.00,2013-07-10 02:15:00,
2013-07-09 22:18:00,74.6,70.1,29.82,SW,217,0.0,4.0,86,0.00,,---,0.05,VWS V14.00,2013-07-10 02:18:00,
2013-07-09 22:23:00,74.4,69.9,29.82,SSW,209,0.0,4.0,86,0.00,,---,0.05,VWS V14.00,2013-07-10 02:23:00,
2013-07-09 22:28:00,74.1,69.7,29.82,SW,223,0.0,6.0,86,0.00,,---,0.05,VWS V14.00,2013-07-10 02:28:00,
2013-07-09 22:30:00,74.8,72.6,29.80,WNW,286,0.0,0.0,93,0.00,,---,0.05,VWS V14.00,2013-07-10 02:30:00,
2013-07-09 22:33:00,73.9,69.4,29.82,SSW,201,0.0,4.0,86,0.00,,---,0.05,VWS V14.00,2013-07-10 02:33:00,
2013-07-09 22:38:00,73.6,69.2,29.82,West,262,5.0,6.0,86,0.00,,---,0.05,VWS V14.00,2013-07-10 02:38:00,
2013-07-09 22:44:00,73.3,69.2,29.82,WSW,254,0.0,7.0,87,0.00,,---,0.05,VWS V14.00,2013-07-10 02:44:00,
2013-07-09 22:45:00,74.4,72.9,29.81,South,191,0.0,3.0,95,0.00,,---,0.05,VWS V14.00,2013-07-10 02:45:00,
2013-07-09 22:49:00,73.0,68.9,29.81,WSW,237,0.0,10.0,87,0.00,,---,0.05,VWS V14.00,2013-07-10 02:49:00,
2013-07-09 22:54:00,72.8,69.0,29.81,WSW,248,0.0,10.0,88,0.00,,---,0.05,VWS V14.00,2013-07-10 02:54:00,
2013-07-09 22:59:00,72.7,68.9,29.82,WSW,257,0.0,10.0,88,0.00,,---,0.05,VWS V14.00,2013-07-10 02:59:00,
2013-07-09 23:00:00,74.7,71.9,29.82,WSW,252,0.0,7.0,91,0.00,,---,0.05,VWS V14.00,2013-07-10 03:00:00,
2013-07-09 23:04:00,72.6,69.2,29.82,SW,230,0.0,8.0,89,0.00,,---,0.05,VWS V14.00,2013-07-10 03:04:00,
2013-07-09 23:09:00,72.3,68.9,29.81,SSW,212,0.0,8.0,89,0.00,,---,0.05,VWS V14.00,2013-07-10 03:09:00,
2013-07-09 23:14:00,72.1,69.0,29.81,SSW,201,0.0,8.0,90,0.00,,---,0.05,VWS V14.00,2013-07-10 03:14:00,
2013-07-09 23:15:00,74.8,70.3,29.81,SSW,207,0.0,9.0,86,0.00,,---,0.05,VWS V14.00,2013-07-10 03:15:00,
2013-07-09 23:19:00,72.0,68.9,29.81,SW,225,0.0,6.0,90,0.00,,---,0.05,VWS V14.00,2013-07-10 03:19:00,
2013-07-09 23:24:00,71.8,69.0,29.81,WSW,250,1.0,6.0,91,0.00,,---,0.05,VWS V14.00,2013-07-10 03:24:00,
2013-07-09 23:29:00,71.7,68.9,29.82,WSW,257,0.0,6.0,91,0.00,,---,0.05,VWS V14.00,2013-07-10 03:29:00,
2013-07-09 23:30:00,74.0,69.6,29.82,SW,221,0.0,6.0,86,0.00,,---,0.05,VWS V14.00,2013-07-10 03:30:00,
2013-07-09 23:34:00,71.6,68.8,29.82,WSW,251,0.0,1.0,91,0.00,,---,0.05,VWS V14.00,2013-07-10 03:34:00,
2013-07-09 23:39:00,71.6,69.2,29.82,WSW,251,0.0,1.0,92,0.00,,---,0.05,VWS V14.00,2013-07-10 03:39:00,
2013-07-09 23:44:00,71.6,69.2,29.81,WSW,251,0.0,1.0,92,0.00,,---,0.05,VWS V14.00,2013-07-10 03:44:00,
2013-07-09 23:45:00,73.2,69.1,29.82,South,190,0.0,7.0,87,0.00,,---,0.05,VWS V14.00,2013-07-10 03:45:00,
2013-07-09 23:49:00,71.5,69.1,29.81,SSW,212,0.0,3.0,92,0.00,,---,0.05,VWS V14.00,2013-07-10 03:49:00,
2013-07-09 23:54:00,71.5,69.4,29.81,SW,222,0.0,3.0,93,0.00,,---,0.05,VWS V14.00,2013-07-10 03:54:00,
2013-07-09 23:59:00,71.5,69.4,29.81,SW,225,0.0,3.0,93,0.00,,---,0.05,VWS V14.00,2013-07-10 03:59:00,